DW9298 Weather Reports


time (UTC)temp
F
wind
direction
speed
knots
gust
knots
rain 1hr
in
rain 24hr
in
rain mn
in
humidity
%
barometer
mb
20260505024543 51 352 4.3 7.8 0.00 0.03 0.03 75 1010.5
20260505023041 52 310 2.6 6.1 0.02 0.03 0.03 75 1010.5
20260505021538 52 270 1.7 3.5 0.03 0.03 0.03 71 1010.5
20260505020039 53 267 5.2 7.8 0.03 0.03 0.03 72 1010.7
20260505014544 55 301 1.7 4.3 0.02 0.02 0.02 61 1010.3
20260505013049 57 315 1.7 5.2 0.01 0.01 0.01 55 1010.5
20260505011542 58 59 2.6 8.7 0.00 0.00 0.00 51 1009.8
20260505010040 59 77 2.6 9.6 0.00 0.00 0.00 46 1009.3
20260505004552 59 336 4.3 13.9 0.00 0.00 0.00 45 1009.1
20260505003041 60 22 6.1 16.5 0.00 0.00 0.00 45 1009.0
20260505001543 62 332 7.0 13.9 0.00 0.00 0.00 36 1009.0
20260505000057 63 310 7.0 13.0 0.00 0.00 0.00 36 1009.0
20260504234540 63 0 1.7 7.8 0.00 0.00 0.00 34 1009.1
20260504233040 64 63 8.7 14.8 0.00 0.00 0.00 35 1009.0
20260504231546 64 39 10.4 17.4 0.00 0.00 0.00 34 1008.5
20260504230100 64 43 12.2 20.0 0.00 0.00 0.00 34 1007.9
20260504224542 64 50 13.0 20.0 0.00 0.00 0.00 33 1007.4
20260504223042 66 31 13.0 18.2 0.00 0.00 0.00 31 1007.9
20260504221557 65 348 7.0 12.2 0.00 0.00 0.00 31 1008.1
20260504220046 64 360 7.8 19.1 0.00 0.00 0.00 32 1008.6
20260504214536 65 313 9.6 21.7 0.00 0.00 0.00 31 1008.8
20260504213044 66 355 10.4 20.9 0.00 0.00 0.00 30 1008.3
20260504211545 67 344 13.0 20.0 0.00 0.00 0.00 26 1008.1
20260504210051 69 355 13.9 20.9 0.00 0.00 0.00 24 1007.6
20260504204541 69 13 16.5 27.8 0.00 0.00 0.00 24 1007.4
20260504203047 70 355 20.0 27.8 0.00 0.00 0.00 24 1007.2
20260504201543 74 307 11.3 28.7 0.00 0.00 0.00 20 1006.9
20260504200042 74 346 11.3 17.4 0.00 0.00 0.00 17 1007.1
20260504194540 73 269 8.7 14.8 0.00 0.00 0.00 18 1007.1
20260504193045 72 306 8.7 20.0 0.00 0.00 0.00 16 1007.1
20260504191543 73 315 9.6 20.0 0.00 0.00 0.00 16 1007.0
20260504190044 73 315 8.7 19.1 0.00 0.00 0.00 16 1007.0
20260504184540 73 318 12.2 19.1 0.00 0.00 0.00 16 1007.2
20260504183045 73 312 9.6 20.0 0.00 0.00 0.00 18 1007.3
20260504181548 72 290 11.3 20.9 0.00 0.00 0.00 20 1007.6
20260504180044 72 280 11.3 24.3 0.00 0.00 0.00 19 1007.7
20260504174542 72 261 14.8 21.7 0.00 0.00 0.00 21 1007.9
20260504173045 72 281 13.9 21.7 0.00 0.00 0.00 22 1008.1
20260504171545 71 276 13.9 22.6 0.00 0.00 0.00 22 1008.2
20260504081544 43 283 1.7 3.5 0.00 0.00 0.00 53 1010.1
20260504050106 57 311 5.2 8.7 0.00 0.00 0.00 32 1010.8
20260504044546 55 270 6.1 10.4 0.00 0.00 0.00 34 1010.7
20260504043049 53 242 4.3 7.0 0.00 0.00 0.00 33 1010.3
20260504041542 55 261 5.2 6.1 0.00 0.00 0.00 31 1010.4
20260504040049 57 262 4.3 6.1 0.00 0.00 0.00 30 1010.6
20260504034546 58 265 4.3 6.1 0.00 0.00 0.00 29 1010.7
20260504033047 58 257 2.6 5.2 0.00 0.00 0.00 29 1010.7
20260504031547 59 255 2.6 3.5 0.00 0.00 0.00 28 1010.7
20260504030040 60 238 2.6 4.3 0.00 0.00 0.00 27 1010.7